This demonstration page uses our WeatherBlox Daily Observations layout. Learn more.

Left ArrowRight Arrow

Hourly Observations for December 11, 2021

Temp ( °F °C ) Dew Point ( °F °C ) Humidity (%) Winds ( mph kmh ) Pressure ( in mb ) Visibility ( mi km ) Precip ( " mm )
12:51 am 00:51 Clear 40 4.4 37 2.8 89 89 NW 6 9 30.11 1020 10 16 0.00 0.00
1:51 am 01:51 Clear 38 3.3 36 2.2 93 93 Calm 30.11 1020 10 16 0.00 0.00
2:51 am 02:51 Clear 38 3.3 36 2.2 93 93 Calm 30.12 1020 10 16 0.00 0.00
3:51 am 03:51 Clear 34 1.1 33 0.6 97 97 Calm 30.14 1021 10 16 0.00 0.00
4:51 am 04:51 Clear 36 2.2 34 1.1 93 93 Calm 30.14 1021 10 16 0.00 0.00
5:51 am 05:51 Clear 35 1.7 34 1.1 96 96 SSE 3 6 30.16 1022 10 16 0.00 0.00
6:51 am 06:51 Clear 30 -1.1 29 -1.7 96 96 Calm 30.20 1023 10 16 0.00 0.00
7:51 am 07:51 Sunny 32 0 30 -1.1 92 92 Calm 30.22 1023 10 16 0.00 0.00
8:51 am 08:51 Sunny 41 5 34 1.1 76 76 Calm 30.24 1024 10 16 0.00 0.00
9:51 am 09:51 Sunny 45 7.2 30 -1.1 56 56 WNW 6 9 30.26 1025 10 16 0.00 0.00
10:51 am 10:51 Sunny 48 8.9 30 -1.1 50 50 Calm 30.24 1024 10 16 0.00 0.00
11:51 am 11:51 Sunny 52 11.1 30 -1.1 43 43 VRB 3 6 30.21 1023 10 16 0.00 0.00
12:51 pm 12:51 Sunny 55 12.8 30 -1.1 38 38 ESE 8 13 30.18 1022 10 16 0.00 0.00
1:51 pm 13:51 Sunny 56 13.3 30 -1.1 37 37 S 7 11 30.15 1021 10 16 0.00 0.00
2:51 pm 14:51 Sunny 58 14.4 31 -0.6 36 36 S 6 9 30.11 1020 10 16 0.00 0.00
3:51 pm 15:51 Sunny 58 14.4 30 -1.1 35 35 S 5 7 30.11 1020 10 16 0.00 0.00
4:51 pm 16:51 Sunny 56 13.3 30 -1.1 37 37 SSW 5 7 30.11 1020 10 16 0.00 0.00
5:51 pm 17:51 Clear 48 8.9 29 -1.7 48 48 E 3 6 30.12 1020 10 16 0.00 0.00
6:51 pm 18:51 Clear 47 8.3 24 -4.4 41 41 SE 7 11 30.15 1021 10 16 0.00 0.00
7:51 pm 19:51 Clear 43 6.1 25 -3.9 49 49 SE 6 9 30.15 1021 10 16 0.00 0.00
8:51 pm 20:51 Clear 47 8.3 23 -5 39 39 E 9 15 30.14 1021 10 16 0.00 0.00
9:51 pm 21:51 Clear 47 8.3 24 -4.4 41 41 E 9 15 30.14 1021 10 16 0.00 0.00
10:51 pm 22:51 Clear 41 5 25 -3.9 53 53 SE 7 11 30.15 1021 10 16 0.00 0.00
11:51 pm 23:51 Clear 42 5.6 25 -3.9 51 51 E 9 15 30.13 1020 10 16 0.00 0.00

Powered by AerisWeather